Time,TemperatureF,DewpointF,PressureIn,WindDirection,WindDirectionDegrees,WindSpeedMPH,WindSpeedGustMPH,Humidity,HourlyPrecipIn,Conditions,Clouds,dailyrainin,SoftwareType,DateUTC
2013-08-21 00:02:00,53.8,41.5,30.01,NNE,23,0.0,0.0,63,0.00,,,0.00,WUHU216HW,2013-08-21 07:02:00,
2013-08-21 00:27:00,52.7,41.3,30.01,NNE,23,0.0,0.0,65,0.00,,,0.00,WUHU216HW,2013-08-21 07:27:00,
2013-08-21 00:32:00,52.7,41.3,30.01,NNE,23,0.0,0.0,65,0.00,,,0.00,WUHU216HW,2013-08-21 07:32:00,
2013-08-21 00:57:00,51.8,40.9,30.02,NNE,23,0.0,0.0,66,0.00,,,0.00,WUHU216HW,2013-08-21 07:57:00,
2013-08-21 01:02:00,51.8,40.9,30.02,NNE,23,0.0,0.0,66,0.00,,,0.00,WUHU216HW,2013-08-21 08:02:00,
2013-08-21 01:07:00,51.8,40.9,30.02,NNE,23,0.0,0.0,66,0.00,,,0.00,WUHU216HW,2013-08-21 08:07:00,
2013-08-21 01:27:00,51.1,40.5,30.03,South,180,0.0,0.0,67,0.00,,,0.00,WUHU216HW,2013-08-21 08:27:00,
2013-08-21 01:32:00,51.1,40.5,30.03,South,180,0.0,0.0,67,0.00,,,0.00,WUHU216HW,2013-08-21 08:32:00,
2013-08-21 01:57:00,50.8,40.6,30.03,East,90,0.0,0.0,68,0.00,,,0.00,WUHU216HW,2013-08-21 08:57:00,
2013-08-21 02:02:00,50.8,40.6,30.03,East,90,0.0,0.0,68,0.00,,,0.00,WUHU216HW,2013-08-21 09:02:00,
2013-08-21 02:07:00,50.8,40.6,30.03,East,90,0.0,0.0,68,0.00,,,0.00,WUHU216HW,2013-08-21 09:07:00,
2013-08-21 02:27:00,49.3,39.2,30.03,NNE,23,0.0,0.0,68,0.00,,,0.00,WUHU216HW,2013-08-21 09:27:00,
2013-08-21 02:32:00,49.3,39.2,30.03,NNE,23,0.0,0.0,68,0.00,,,0.00,WUHU216HW,2013-08-21 09:32:00,
2013-08-21 02:57:00,48.8,39.1,30.03,NNE,23,1.1,1.1,69,0.00,,,0.00,WUHU216HW,2013-08-21 09:57:00,
2013-08-21 03:02:00,48.8,39.1,30.03,NNE,23,1.1,1.1,69,0.00,,,0.00,WUHU216HW,2013-08-21 10:02:00,
2013-08-21 03:07:00,48.8,39.1,30.03,NNE,23,1.1,1.1,69,0.00,,,0.00,WUHU216HW,2013-08-21 10:07:00,
2013-08-21 03:27:00,48.4,39.4,30.04,SE,135,0.0,0.0,71,0.00,,,0.00,WUHU216HW,2013-08-21 10:27:00,
2013-08-21 03:32:00,48.4,39.4,30.04,SE,135,0.0,0.0,71,0.00,,,0.00,WUHU216HW,2013-08-21 10:32:00,
2013-08-21 03:57:00,47.5,38.9,30.04,SSW,203,0.0,0.0,72,0.00,,,0.00,WUHU216HW,2013-08-21 10:57:00,
2013-08-21 04:02:00,47.5,38.9,30.04,SSW,203,0.0,0.0,72,0.00,,,0.00,WUHU216HW,2013-08-21 11:02:00,
2013-08-21 04:07:00,47.5,38.9,30.04,SSW,203,0.0,0.0,72,0.00,,,0.00,WUHU216HW,2013-08-21 11:07:00,
2013-08-21 04:27:00,47.0,38.8,30.04,North,0,0.0,0.0,73,0.00,,,0.00,WUHU216HW,2013-08-21 11:27:00,
2013-08-21 04:32:00,47.0,38.8,30.04,North,0,0.0,0.0,73,0.00,,,0.00,WUHU216HW,2013-08-21 11:32:00,
2013-08-21 04:57:00,46.3,38.1,30.05,NNE,23,0.0,0.0,73,0.00,,,0.00,WUHU216HW,2013-08-21 11:57:00,
2013-08-21 05:02:00,46.3,38.1,30.05,NNE,23,0.0,0.0,73,0.00,,,0.00,WUHU216HW,2013-08-21 12:02:00,
2013-08-21 05:07:00,46.3,38.1,30.05,NNE,23,0.0,0.0,73,0.00,,,0.00,WUHU216HW,2013-08-21 12:07:00,
2013-08-21 05:27:00,45.9,38.1,30.05,NNE,23,0.7,0.7,74,0.00,,,0.00,WUHU216HW,2013-08-21 12:27:00,
2013-08-21 05:32:00,45.9,38.1,30.05,NNE,23,0.7,0.7,74,0.00,,,0.00,WUHU216HW,2013-08-21 12:32:00,
2013-08-21 05:57:00,45.4,37.5,30.06,North,0,0.0,0.0,74,0.00,,,0.00,WUHU216HW,2013-08-21 12:57:00,
2013-08-21 06:02:00,45.4,37.5,30.06,North,0,0.0,0.0,74,0.00,,,0.00,WUHU216HW,2013-08-21 13:02:00,
2013-08-21 06:27:00,44.8,37.7,30.06,NE,45,0.0,0.0,76,0.00,,,0.00,WUHU216HW,2013-08-21 13:27:00,
2013-08-21 06:32:00,44.8,37.7,30.06,NE,45,0.0,0.0,76,0.00,,,0.00,WUHU216HW,2013-08-21 13:32:00,
2013-08-21 06:57:00,45.9,39.4,30.07,NE,45,1.1,1.1,78,0.00,,,0.00,WUHU216HW,2013-08-21 13:57:00,
2013-08-21 07:02:00,45.9,39.4,30.07,NE,45,1.1,1.1,78,0.00,,,0.00,WUHU216HW,2013-08-21 14:02:00,
2013-08-21 07:27:00,49.3,41.3,30.08,NE,45,1.1,1.1,74,0.00,,,0.00,WUHU216HW,2013-08-21 14:27:00,
2013-08-21 07:32:00,49.3,41.3,30.08,NE,45,1.1,1.1,74,0.00,,,0.00,WUHU216HW,2013-08-21 14:32:00,
2013-08-21 07:57:00,52.6,43.8,30.08,SSW,203,1.8,1.8,72,0.00,,,0.00,WUHU216HW,2013-08-21 14:57:00,
2013-08-21 08:02:00,52.6,43.8,30.08,SSW,203,1.8,1.8,72,0.00,,,0.00,WUHU216HW,2013-08-21 15:02:00,
2013-08-21 08:27:00,55.4,44.6,30.08,SSW,203,2.2,2.2,67,0.00,,,0.00,WUHU216HW,2013-08-21 15:27:00,
2013-08-21 08:32:00,55.4,44.6,30.08,SSW,203,2.2,2.2,67,0.00,,,0.00,WUHU216HW,2013-08-21 15:32:00,
2013-08-21 08:57:00,58.0,45.5,30.08,ENE,68,1.1,1.1,63,0.00,,,0.00,WUHU216HW,2013-08-21 15:57:00,
2013-08-21 09:02:00,58.0,45.5,30.08,ENE,68,1.1,1.1,63,0.00,,,0.00,WUHU216HW,2013-08-21 16:02:00,
2013-08-21 09:27:00,61.0,46.6,30.07,SW,225,0.9,0.9,59,0.00,,,0.00,WUHU216HW,2013-08-21 16:27:00,
2013-08-21 09:32:00,61.0,46.6,30.07,SW,225,0.9,0.9,59,0.00,,,0.00,WUHU216HW,2013-08-21 16:32:00,
2013-08-21 09:57:00,65.5,48.4,30.06,East,90,4.7,4.7,54,0.00,,,0.00,WUHU216HW,2013-08-21 16:57:00,
2013-08-21 10:02:00,65.5,48.4,30.06,East,90,4.7,4.7,54,0.00,,,0.00,WUHU216HW,2013-08-21 17:02:00,
2013-08-21 10:27:00,69.1,48.6,30.06,WSW,248,0.0,0.0,48,0.00,,,0.00,WUHU216HW,2013-08-21 17:27:00,
2013-08-21 10:32:00,69.1,48.6,30.06,WSW,248,0.0,0.0,48,0.00,,,0.00,WUHU216HW,2013-08-21 17:32:00,
2013-08-21 10:57:00,73.4,50.0,30.05,NE,45,0.4,0.4,44,0.00,,,0.00,WUHU216HW,2013-08-21 17:57:00,
2013-08-21 11:02:00,73.4,50.0,30.05,NE,45,0.4,0.4,44,0.00,,,0.00,WUHU216HW,2013-08-21 18:02:00,
2013-08-21 11:27:00,77.8,49.3,30.05,North,0,0.9,0.9,37,0.00,,,0.00,WUHU216HW,2013-08-21 18:27:00,
2013-08-21 11:32:00,77.8,49.3,30.05,North,0,0.9,0.9,37,0.00,,,0.00,WUHU216HW,2013-08-21 18:32:00,
2013-08-21 11:57:00,80.6,48.0,30.03,ENE,68,3.6,3.6,32,0.00,,,0.00,WUHU216HW,2013-08-21 18:57:00,
2013-08-21 12:02:00,80.6,48.0,30.03,NE,45,1.6,3.6,32,0.00,,,0.00,WUHU216HW,2013-08-21 19:02:00,
2013-08-21 12:07:00,80.6,48.0,30.03,NE,45,1.6,1.6,32,0.00,,,0.00,WUHU216HW,2013-08-21 19:07:00,
2013-08-21 12:27:00,83.0,48.3,30.03,SSW,203,3.1,3.1,30,0.00,,,0.00,WUHU216HW,2013-08-21 19:27:00,
2013-08-21 12:32:00,83.0,48.3,30.03,SSW,203,3.1,3.1,30,0.00,,,0.00,WUHU216HW,2013-08-21 19:32:00,
2013-08-21 12:57:00,84.2,48.4,30.02,NNE,23,0.4,0.4,29,0.00,,,0.00,WUHU216HW,2013-08-21 19:57:00,
2013-08-21 13:02:00,84.2,49.5,30.02,NNE,23,0.4,0.4,30,0.00,,,0.00,WUHU216HW,2013-08-21 20:02:00,
2013-08-21 13:07:00,84.2,49.5,30.02,NNE,23,0.4,0.4,30,0.00,,,0.00,WUHU216HW,2013-08-21 20:07:00,
2013-08-21 13:27:00,84.2,48.4,30.01,SSW,203,4.7,4.7,29,0.00,,,0.00,WUHU216HW,2013-08-21 20:27:00,
2013-08-21 13:32:00,84.2,48.4,30.01,SSW,203,4.7,4.7,29,0.00,,,0.00,WUHU216HW,2013-08-21 20:32:00,
2013-08-21 13:57:00,83.7,44.8,30.00,South,180,2.2,2.2,26,0.00,,,0.00,WUHU216HW,2013-08-21 20:57:00,
2013-08-21 14:02:00,83.7,44.8,30.00,South,180,2.0,2.2,26,0.00,,,0.00,WUHU216HW,2013-08-21 21:02:00,
2013-08-21 14:07:00,83.7,44.8,30.00,South,180,2.0,2.0,26,0.00,,,0.00,WUHU216HW,2013-08-21 21:07:00,
2013-08-21 14:27:00,84.6,44.5,29.99,SSW,203,0.4,0.4,25,0.00,,,0.00,WUHU216HW,2013-08-21 21:27:00,
2013-08-21 14:32:00,84.6,44.5,29.99,SSW,203,0.4,0.4,25,0.00,,,0.00,WUHU216HW,2013-08-21 21:32:00,
2013-08-21 14:57:00,85.0,44.8,29.98,NNE,23,0.7,0.7,25,0.00,,,0.00,WUHU216HW,2013-08-21 21:57:00,
2013-08-21 15:02:00,85.0,44.8,29.98,NE,45,0.7,0.7,25,0.00,,,0.00,WUHU216HW,2013-08-21 22:02:00,
2013-08-21 15:07:00,85.0,44.8,29.98,NE,45,0.7,0.7,25,0.00,,,0.00,WUHU216HW,2013-08-21 22:07:00,
2013-08-21 15:27:00,83.9,43.9,29.98,SE,135,1.1,1.1,25,0.00,,,0.00,WUHU216HW,2013-08-21 22:27:00,
2013-08-21 15:32:00,83.9,43.9,29.98,SE,135,1.1,1.1,25,0.00,,,0.00,WUHU216HW,2013-08-21 22:32:00,
2013-08-21 15:57:00,83.5,42.5,29.97,South,180,2.7,2.7,24,0.00,,,0.00,WUHU216HW,2013-08-21 22:57:00,
2013-08-21 16:02:00,83.5,42.5,29.97,South,180,2.7,2.7,24,0.00,,,0.00,WUHU216HW,2013-08-21 23:02:00,
2013-08-21 16:27:00,83.7,43.8,29.96,West,270,2.0,2.0,25,0.00,,,0.00,WUHU216HW,2013-08-21 23:27:00,
2013-08-21 16:32:00,83.7,43.8,29.96,West,270,2.0,2.0,25,0.00,,,0.00,WUHU216HW,2013-08-21 23:32:00,
2013-08-21 16:57:00,83.9,41.8,29.95,WSW,248,0.4,0.4,23,0.00,,,0.00,WUHU216HW,2013-08-21 23:57:00,
2013-08-21 17:02:00,83.9,41.8,29.95,WSW,248,0.4,0.4,23,0.00,,,0.00,WUHU216HW,2013-08-22 00:02:00,
2013-08-21 17:27:00,83.3,42.4,29.95,NE,45,2.2,2.2,24,0.00,,,0.00,WUHU216HW,2013-08-22 00:27:00,
2013-08-21 17:32:00,83.3,42.4,29.95,NE,45,2.2,2.2,24,0.00,,,0.00,WUHU216HW,2013-08-22 00:32:00,
2013-08-21 17:57:00,82.8,46.1,29.94,NW,315,0.0,0.0,28,0.00,,,0.00,WUHU216HW,2013-08-22 00:57:00,
2013-08-21 18:02:00,82.8,46.1,29.94,NW,315,0.0,0.0,28,0.00,,,0.00,WUHU216HW,2013-08-22 01:02:00,
2013-08-21 18:27:00,80.8,48.2,29.94,North,0,0.0,0.0,32,0.00,,,0.00,WUHU216HW,2013-08-22 01:27:00,
2013-08-21 18:32:00,80.8,48.2,29.94,North,0,0.0,0.0,32,0.00,,,0.00,WUHU216HW,2013-08-22 01:32:00,
2013-08-21 18:57:00,77.9,48.0,29.94,NNE,23,0.0,0.0,35,0.00,,,0.00,WUHU216HW,2013-08-22 01:57:00,
2013-08-21 19:02:00,77.9,48.0,29.94,NNE,23,0.0,0.0,35,0.00,,,0.00,WUHU216HW,2013-08-22 02:02:00,
2013-08-21 19:27:00,74.0,48.8,29.94,NNE,23,0.0,0.0,41,0.00,,,0.00,WUHU216HW,2013-08-22 02:27:00,
2013-08-21 19:32:00,74.0,48.8,29.94,NNE,23,0.0,0.0,41,0.00,,,0.00,WUHU216HW,2013-08-22 02:32:00,
2013-08-21 19:57:00,71.6,49.1,29.94,NNE,23,0.0,0.0,45,0.00,,,0.00,WUHU216HW,2013-08-22 02:57:00,
2013-08-21 20:02:00,71.6,49.1,29.94,NNE,23,0.0,0.0,45,0.00,,,0.00,WUHU216HW,2013-08-22 03:02:00,
2013-08-21 20:27:00,68.8,48.2,29.95,North,0,0.0,0.0,48,0.00,,,0.00,WUHU216HW,2013-08-22 03:27:00,
2013-08-21 20:32:00,68.8,48.2,29.95,North,0,0.0,0.0,48,0.00,,,0.00,WUHU216HW,2013-08-22 03:32:00,
2013-08-21 20:57:00,66.6,48.4,29.96,NNE,23,0.0,0.0,52,0.00,,,0.00,WUHU216HW,2013-08-22 03:57:00,
2013-08-21 21:01:00,66.6,48.4,29.96,NNE,23,0.0,0.0,52,0.00,,,0.00,WUHU216HW,2013-08-22 04:01:00,
2013-08-21 21:06:00,66.6,48.4,29.96,NNE,23,0.0,0.0,52,0.00,,,0.00,WUHU216HW,2013-08-22 04:06:00,
2013-08-21 21:27:00,64.8,48.6,29.96,NNE,23,0.0,0.0,56,0.00,,,0.00,WUHU216HW,2013-08-22 04:27:00,
2013-08-21 21:32:00,64.8,48.6,29.96,NNE,23,0.0,0.0,56,0.00,,,0.00,WUHU216HW,2013-08-22 04:32:00,
2013-08-21 21:57:00,62.8,48.8,29.96,North,0,0.0,0.0,60,0.00,,,0.00,WUHU216HW,2013-08-22 04:57:00,
2013-08-21 22:02:00,62.8,48.8,29.96,North,0,0.0,0.0,60,0.00,,,0.00,WUHU216HW,2013-08-22 05:02:00,
2013-08-21 22:07:00,62.8,48.8,29.96,North,0,0.0,0.0,60,0.00,,,0.00,WUHU216HW,2013-08-22 05:07:00,
2013-08-21 22:27:00,61.0,48.4,29.96,NNE,23,0.0,0.0,63,0.00,,,0.00,WUHU216HW,2013-08-22 05:27:00,
2013-08-21 22:32:00,61.0,48.4,29.96,NNE,23,0.0,0.0,63,0.00,,,0.00,WUHU216HW,2013-08-22 05:32:00,
2013-08-21 22:57:00,59.6,47.8,29.97,NNE,23,0.0,0.0,65,0.00,,,0.00,WUHU216HW,2013-08-22 05:57:00,
2013-08-21 23:02:00,59.6,47.8,29.97,NNE,23,0.0,0.0,65,0.00,,,0.00,WUHU216HW,2013-08-22 06:02:00,
2013-08-21 23:07:00,59.6,47.8,29.97,NNE,23,0.0,0.0,65,0.00,,,0.00,WUHU216HW,2013-08-22 06:07:00,
2013-08-21 23:27:00,57.6,47.1,29.96,NNE,23,0.4,0.4,68,0.00,,,0.00,WUHU216HW,2013-08-22 06:27:00,
2013-08-21 23:32:00,57.6,47.1,29.96,NNE,23,0.4,0.4,68,0.00,,,0.00,WUHU216HW,2013-08-22 06:32:00,
2013-08-21 23:57:00,56.7,46.6,29.96,NE,45,0.4,0.4,69,0.00,,,0.00,WUHU216HW,2013-08-22 06:57:00,